Regional Weather Roundup
Issued by NWS

Home | Current Version | Previous Version | Graphics & Text | Print | Product List | Glossary Off
Versions: 1 2 3 4 5 6 7 8 9 10 11 12 13 14 15 16 17 18 19 20 21 22 23 24 25 26 27

000
ASUS45 KBOI 280810
RWRID

IDAHO REGIONAL WEATHER ROUNDUP
NATIONAL WEATHER SERVICE BOISE ID
200 AM MDT THU JUL 28 2016

NOTE: "FAIR" INDICATES FEW OR NO CLOUDS BELOW 12000 FEET
WITH NO SIGNIFICANT WEATHER AND/OR OBSTRUCTIONS TO VISIBILITY

IDZ012-014-280900-
SOUTHWEST IDAHO


CITY           SKY/WX    TMP DP  RH WIND       PRES   REMARKS
BOISE          CLEAR     73  47  39 S5        29.99R
CALDWELL       CLEAR     76  46  34 SW10      29.98R
MOUNTAIN HOME  CLEAR     75  44  32 NW8       29.98S
$$

IDZ016-017-280900-
SOUTHCENTRAL IDAHO


CITY           SKY/WX    TMP DP  RH WIND       PRES   REMARKS
BURLEY         CLEAR     63  48  58 SW5       30.05R
JEROME         CLEAR     72  47  40 SE6       30.06R
TWIN FALLS     CLEAR     74  37  26 S13       30.06S
$$

IDZ019>023-280900-
SOUTHEAST IDAHO


CITY           SKY/WX    TMP DP  RH WIND       PRES   REMARKS
IDAHO FALLS    CLEAR     63  43  48 N5        30.12R
POCATELLO      CLEAR     63  40  42 S10       30.08R
REXBURG        CLEAR     67  45  45 E10       30.12S
$$

IDZ006-010-011-018-031-032-280900-
CENTRAL IDAHO MOUNTAINS


CITY           SKY/WX    TMP DP  RH WIND       PRES   REMARKS
MCCALL         CLEAR     66  47  50 N6        30.19S
HAILEY         CLEAR     64  37  36 NW10      30.18S
STANLEY          N/A     50  35  56 S5        30.30S
SALMON         CLEAR     64  43  45 CALM      30.10S
CHALLIS        CLEAR     65  35  33 SE3       30.17S
$$

IDZ002-004-006-007-026-280900-
NORTHERN IDAHO


CITY           SKY/WX    TMP DP  RH WIND       PRES   REMARKS
LEWISTON       CLEAR     77  50  38 S5        29.99S
LOWELL           N/A     65  58  78 CALM      30.05R
COEUR D`ALENE  CLEAR     70  52  52 N12       30.04R
MULLAN PASS    CLEAR     65  42  43 N3        30.28S
$$




USA.gov is the U.S. government's official web portal to all federal, state and local government web resources and services.